When you browse on this site, cookies collect data to enhance your experience and personalize the content and advertising you see.
Visit our Privacy Policy to learn more. By continuing to use the site, you agree to this use of cookies and data.
  • In Sweden
  • List of Countries
  • For 7 days
  • Water Temperature
  • Weather Map
  • Weather Widgets
  • user-avatar
    Login

    Hourly Weather Clarksville

    Today, 3 June, Wednesday

    Time Temperature Precipitation Wind Pressure Humidity
    00:00 +20°C° 0 mm 3 mps 751 mmHg 79%
    01:00 +20°C° 0 mm 2 mps 751 mmHg 79%
    02:00 +20°C° 0 mm 2 mps 750 mmHg 79%
    03:00 +20°C° 0 mm 2 mps 750 mmHg 78%
    04:00 +20°C° 0 mm 2 mps 750 mmHg 81%
    05:00 +20°C° 0 mm 2 mps 750 mmHg 83%
    06:00 +23°C° 0 mm 1 mps 750 mmHg 85%
    07:00 +25°C° 0 mm 1 mps 750 mmHg 81%
    08:00 +26°C° 0 mm 2 mps 750 mmHg 77%
    09:00 +28°C° 0 mm 2 mps 750 mmHg 72%
    10:00 +29°C° 0.2 mm 2 mps 749 mmHg 70%
    11:00 +30°C° 0.2 mm 2 mps 749 mmHg 67%
    12:00 +31°C° 0.2 mm 3 mps 749 mmHg 65%
    13:00 +31°C° 0 mm 3 mps 748 mmHg 65%
    14:00 +31°C° 0 mm 3 mps 748 mmHg 65%
    15:00 +31°C° 0 mm 3 mps 747 mmHg 65%
    16:00 +30°C° 0.2 mm 3 mps 747 mmHg 71%
    17:00 +29°C° 0.2 mm 2 mps 747 mmHg 78%
    18:00 +28°C° 0.2 mm 2 mps 747 mmHg 84%
    19:00 +26°C° 0.6 mm 2 mps 747 mmHg 87%
    20:00 +25°C° 0.6 mm 2 mps 747 mmHg 89%
    21:00 +24°C° 0.6 mm 2 mps 747 mmHg 92%
    22:00 +23°C° 0 mm 2 mps 747 mmHg 92%
    23:00 +23°C° 0 mm 2 mps 747 mmHg 93%

    Tomorrow, 4 June, Thursday

    Time Temperature Precipitation Wind Pressure Humidity
    00:00 +21°C° 0 mm 2 mps 747 mmHg 94%
    01:00 +21°C° 0.7 mm 2 mps 747 mmHg 95%
    02:00 +21°C° 0.7 mm 2 mps 747 mmHg 96%
    03:00 +21°C° 0.7 mm 2 mps 746 mmHg 96%
    04:00 +21°C° 0.4 mm 2 mps 747 mmHg 96%
    05:00 +21°C° 0.4 mm 3 mps 747 mmHg 96%
    06:00 +22°C° 0.4 mm 3 mps 747 mmHg 96%
    07:00 +24°C° 0 mm 3 mps 747 mmHg 91%
    08:00 +26°C° 0 mm 3 mps 747 mmHg 86%
    09:00 +27°C° 0 mm 4 mps 747 mmHg 82%
    10:00 +29°C° 0.4 mm 3 mps 747 mmHg 77%
    11:00 +30°C° 0.4 mm 3 mps 747 mmHg 73%
    12:00 +31°C° 0.4 mm 3 mps 747 mmHg 68%
    13:00 +31°C° 0.2 mm 3 mps 746 mmHg 69%
    14:00 +31°C° 0.2 mm 3 mps 746 mmHg 70%
    15:00 +32°C° 0.2 mm 4 mps 746 mmHg 71%
    16:00 +30°C° 0.9 mm 3 mps 746 mmHg 77%
    17:00 +29°C° 0.9 mm 3 mps 746 mmHg 82%
    18:00 +28°C° 0.9 mm 2 mps 746 mmHg 87%
    19:00 +26°C° 0.4 mm 2 mps 746 mmHg 90%
    20:00 +25°C° 0.4 mm 2 mps 746 mmHg 92%
    21:00 +24°C° 0.4 mm 2 mps 747 mmHg 94%
    22:00 +24°C° 0 mm 2 mps 747 mmHg 95%
    23:00 +23°C° 0 mm 2 mps 747 mmHg 95%

    Day after tomorrow, 5 June, Friday

    Time Temperature Precipitation Wind Pressure Humidity
    00:00 +23°C° 0 mm 2 mps 746 mmHg 96%
    01:00 +23°C° 0.2 mm 2 mps 747 mmHg 96%
    02:00 +22°C° 0.2 mm 3 mps 747 mmHg 96%
    03:00 +22°C° 0.2 mm 3 mps 747 mmHg 96%
    04:00 +22°C° 0.4 mm 3 mps 747 mmHg 96%
    05:00 +22°C° 0.4 mm 3 mps 748 mmHg 96%
    06:00 +24°C° 0.4 mm 3 mps 748 mmHg 96%
    07:00 +25°C° 0 mm 3 mps 748 mmHg 90%
    08:00 +27°C° 0 mm 3 mps 748 mmHg 84%
    09:00 +28°C° 0 mm 3 mps 748 mmHg 78%
    10:00 +30°C° 0 mm 3 mps 748 mmHg 73%
    11:00 +31°C° 0 mm 3 mps 748 mmHg 69%
    12:00 +33°C° 0 mm 3 mps 747 mmHg 64%
    13:00 +33°C° 0.3 mm 3 mps 747 mmHg 65%
    14:00 +34°C° 0.3 mm 3 mps 747 mmHg 65%
    15:00 +34°C° 0.3 mm 3 mps 747 mmHg 66%
    16:00 +32°C° 0.3 mm 2 mps 747 mmHg 71%
    17:00 +31°C° 0.3 mm 2 mps 747 mmHg 76%
    18:00 +29°C° 0.3 mm 2 mps 747 mmHg 82%
    19:00 +28°C° 0 mm 2 mps 747 mmHg 84%
    20:00 +27°C° 0 mm 2 mps 747 mmHg 87%
    21:00 +26°C° 0 mm 2 mps 747 mmHg 89%
    22:00 +25°C° 0.1 mm 1 mps 748 mmHg 90%
    23:00 +25°C° 0.1 mm 1 mps 748 mmHg 92%

    6 June, Saturday

    Time Temperature Precipitation Wind Pressure Humidity
    00:00 +25°C° 0.1 mm 1 mps 748 mmHg 93%
    01:00 +24°C° 1.6 mm 2 mps 748 mmHg 94%
    02:00 +24°C° 1.6 mm 2 mps 748 mmHg 94%
    03:00 +22°C° 1.6 mm 3 mps 748 mmHg 95%
    04:00 +23°C° 0 mm 2 mps 748 mmHg 94%
    05:00 +23°C° 0 mm 1 mps 748 mmHg 94%
    06:00 +23°C° 0 mm 1 mps 748 mmHg 93%
    07:00 +25°C° 0 mm 1 mps 748 mmHg 90%
    08:00 +26°C° 0 mm 2 mps 748 mmHg 86%
    09:00 +27°C° 0 mm 3 mps 749 mmHg 83%
    10:00 +28°C° 0 mm 3 mps 749 mmHg 80%
    11:00 +29°C° 0 mm 2 mps 748 mmHg 77%
    12:00 +30°C° 0 mm 2 mps 748 mmHg 74%
    13:00 +30°C° 0 mm 3 mps 748 mmHg 73%
    14:00 +31°C° 0 mm 3 mps 748 mmHg 71%
    15:00 +32°C° 0 mm 4 mps 747 mmHg 70%
    16:00 +30°C° 0 mm 4 mps 747 mmHg 74%
    17:00 +29°C° 0 mm 3 mps 747 mmHg 79%
    18:00 +28°C° 0 mm 3 mps 747 mmHg 84%
    19:00 +26°C° 0 mm 3 mps 748 mmHg 85%
    20:00 +25°C° 0 mm 3 mps 748 mmHg 87%
    21:00 +22°C° 0 mm 3 mps 748 mmHg 89%
    22:00 +21°C° 0 mm 3 mps 748 mmHg 90%
    23:00 +20°C° 0 mm 3 mps 748 mmHg 91%

    7 June, Sunday

    Time Temperature Precipitation Wind Pressure Humidity
    00:00 +19°C° 0 mm 2 mps 748 mmHg 92%
    01:00 +18°C° 0 mm 2 mps 748 mmHg 92%
    02:00 +17°C° 0 mm 3 mps 748 mmHg 92%
    03:00 +17°C° 0 mm 3 mps 748 mmHg 92%
    04:00 +17°C° 0 mm 3 mps 748 mmHg 91%
    05:00 +18°C° 0 mm 3 mps 749 mmHg 89%
    06:00 +18°C° 0 mm 4 mps 749 mmHg 87%
    07:00 +20°C° 0 mm 4 mps 749 mmHg 82%
    08:00 +22°C° 0 mm 4 mps 749 mmHg 78%
    09:00 +25°C° 0 mm 4 mps 749 mmHg 73%
    10:00 +26°C° 0 mm 4 mps 749 mmHg 70%
    11:00 +28°C° 0 mm 4 mps 749 mmHg 67%
    12:00 +29°C° 0 mm 5 mps 748 mmHg 64%
    13:00 +29°C° 0 mm 5 mps 748 mmHg 64%
    14:00 +29°C° 0 mm 5 mps 748 mmHg 64%
    15:00 +29°C° 0 mm 5 mps 748 mmHg 63%
    16:00 +28°C° 0 mm 4 mps 748 mmHg 69%
    17:00 +27°C° 0 mm 4 mps 747 mmHg 74%
    18:00 +26°C° 0 mm 3 mps 747 mmHg 80%
    19:00 +25°C° 0 mm 4 mps 748 mmHg 80%
    20:00 +23°C° 0 mm 4 mps 748 mmHg 80%
    21:00 +22°C° 0 mm 4 mps 748 mmHg 81%
    22:00 +21°C° 0 mm 4 mps 748 mmHg 80%
    23:00 +21°C° 0 mm 4 mps 748 mmHg 80%

    8 June, Monday

    Time Temperature Precipitation Wind Pressure Humidity
    00:00 +20°C° 0 mm 4 mps 748 mmHg 80%
    01:00 +20°C° 0 mm 4 mps 748 mmHg 77%
    02:00 +20°C° 0 mm 4 mps 748 mmHg 74%
    03:00 +20°C° 0 mm 4 mps 748 mmHg 72%
    04:00 +19°C° 0 mm 4 mps 748 mmHg 74%
    05:00 +19°C° 0 mm 4 mps 748 mmHg 75%
    06:00 +19°C° 0 mm 3 mps 748 mmHg 77%
    07:00 +20°C° 0 mm 3 mps 748 mmHg 76%
    08:00 +22°C° 0 mm 4 mps 748 mmHg 76%
    09:00 +25°C° 0 mm 4 mps 748 mmHg 75%
    10:00 +27°C° 0 mm 4 mps 748 mmHg 73%
    11:00 +29°C° 0 mm 4 mps 748 mmHg 72%
    12:00 +30°C° 0 mm 4 mps 748 mmHg 70%
    13:00 +32°C° 0 mm 4 mps 748 mmHg 70%
    14:00 +32°C° 0 mm 4 mps 747 mmHg 70%
    15:00 +33°C° 0 mm 4 mps 746 mmHg 69%
    16:00 +31°C° 0.1 mm 3 mps 746 mmHg 75%
    17:00 +30°C° 0.1 mm 3 mps 746 mmHg 80%
    18:00 +29°C° 0.1 mm 3 mps 746 mmHg 85%
    19:00 +28°C° 0.1 mm 3 mps 746 mmHg 87%
    20:00 +27°C° 0.1 mm 3 mps 746 mmHg 88%
    21:00 +25°C° 0.1 mm 3 mps 747 mmHg 90%
    22:00 +25°C° 0 mm 3 mps 746 mmHg 90%
    23:00 +25°C° 0 mm 4 mps 746 mmHg 90%
    Show more